Terminal Aerodrome Forecast
Issued by NWS New Orleans/Baton Rouge, LA

Home | Current Version | Previous Version | Text Only | Print | Product List | Glossary On
Versions: 1 2 3 4 5 6 7 8 9 10 11 12
000
FTUS44 KLIX 251740
TAFNEW
TAF
KNEW 251740Z 2518/2618 06012KT P6SM VCSH SCT021 SCT028 BKN050
     FM260100 08006KT P6SM FEW035 SCT100=

USA.gov is the U.S. government's official web portal to all federal, state and local government web resources and services.